Weather History for Atlanta Fulton, GA

Change the Weather History Date:

Sunday, August 18, 2013

  Actual Average Record
Temperature  
Mean Temperature 73 °F 79 °F  
Max Temperature 78 °F 88 °F 99 °F (1999)
Min Temperature 67 °F 70 °F 33 °F (1996)
Cooling Degree Days 8 14  
Month to date cooling degree days 221 261  
Year to date cooling degree days 1156 1270  
Since 1 June cooling degree days 993 1070  
Growing Degree Days 20 (Base 50)    
Moisture  
Dew Point 68 °F    
Average Humidity 90    
Maximum Humidity 100    
Minimum Humidity 79    
Precipitation  
Precipitation 0.56 in 0.16 in 0.68 in (1977)
Month to date precipitation 2.71 2.92  
Year to date precipitation 32.69 33.60  
Sea Level Pressure  
Sea Level Pressure 30.14 in    
Wind  
Wind Speed 4 mph (ENE)    
Max Wind Speed 9 mph    
Max Gust Speed 12 mph    
Visibility 7 miles    
Events Rain    
T = Trace of Precipitation, MM = Missing Value Source: NWS Daily Summary

Daily Weather History Graph

Daily Weather History Graph

Search for Another Location

Airport:

Trip Planner

Search our weather history database for the weather conditions in past years. The results will help you decide how hot, cold, wet, or windy it might be!

Date:

Astronomy

Aug. 18, 2013 Rise Set
Actual Time 7:02 AM EDT 8:20 PM EDT
Civil Twilight 6:36 AM EDT 8:46 PM EDT
Nautical Twilight 6:04 AM EDT 9:18 PM EDT
Astronomical Twilight 5:32 AM EDT 9:50 PM EDT
Moon 6:23 PM EDT (8/18) 4:14 AM EDT (8/18)
Length of Visible Light 14h 10m
Length of Day
13h 18m
Waxing Gibbous, 92% of the Moon is Illuminated
Aug 18
Waxing Gibbous
Aug 20
Full
Aug 28
Last Quarter
Sep 5
New
Sep 12
First Quarter

Hourly Weather History & Observations

Time (EDT) Temp. Dew Point Humidity Pressure Visibility Wind Dir Wind Speed Gust Speed Precip Events Conditions
12:53 AM 66.9 °F 66.0 °F 97% 30.12 in 2.0 mi ENE 5.8 mph - 0.00 in   Overcast
1:00 AM 66.2 °F 66.2 °F 100% 30.13 in 9.0 mi ENE 4.6 mph - N/A   Overcast
1:09 AM 66.2 °F 66.2 °F 100% 30.13 in 2.0 mi ENE 6.9 mph - N/A   Overcast
1:53 AM 66.9 °F 66.0 °F 97% 30.10 in 2.0 mi NE 3.5 mph - N/A   Overcast
2:00 AM 66.2 °F 66.2 °F 100% 30.12 in 2.0 mi NE 3.5 mph - N/A   Overcast
2:53 AM 66.9 °F 66.0 °F 97% 30.11 in 2.0 mi East 3.5 mph - 0.00 in Rain Light Rain
2:58 AM 66.2 °F 66.2 °F 100% 30.12 in 5.0 mi East 3.5 mph - 0.00 in   Overcast
3:53 AM 66.9 °F 66.0 °F 97% 30.10 in 10.0 mi Calm Calm - 0.01 in   Overcast
4:53 AM 68.0 °F 66.0 °F 93% 30.11 in 3.0 mi Calm Calm - 0.00 in Rain Light Rain
5:53 AM 66.9 °F 66.0 °F 97% 30.12 in 3.0 mi North 3.5 mph - 0.01 in Rain Light Rain
6:32 AM 66.2 °F 66.2 °F 100% 30.14 in 6.0 mi Calm Calm - 0.00 in Rain Light Rain
6:53 AM 66.9 °F 66.0 °F 97% 30.13 in 6.0 mi Calm Calm - 0.00 in   Overcast
7:53 AM 68.0 °F 66.0 °F 93% 30.16 in 10.0 mi Calm Calm - N/A   Overcast
8:08 AM 68.0 °F 66.2 °F 94% 30.18 in 1.0 mi Calm Calm - N/A   Overcast
8:49 AM 69.8 °F 66.2 °F 88% 30.19 in 3.0 mi NNE 3.5 mph - N/A   Overcast
8:53 AM 69.1 °F 66.9 °F 93% 30.17 in 3.0 mi Calm Calm - N/A   Overcast
9:03 AM 69.8 °F 66.2 °F 88% 30.18 in 3.0 mi NE 3.5 mph - N/A   Overcast
9:53 AM 71.1 °F 68.0 °F 90% 30.16 in 3.0 mi NNE 4.6 mph - N/A   Overcast
10:53 AM 73.0 °F 68.0 °F 84% 30.18 in 7.0 mi East 4.6 mph - N/A   Overcast
11:53 AM 75.0 °F 68.0 °F 79% 30.17 in 10.0 mi ENE 4.6 mph - N/A   Mostly Cloudy
12:53 PM 75.0 °F 66.9 °F 76% 30.17 in 4.0 mi East 4.6 mph - 0.03 in Rain Rain
1:00 PM 73.4 °F 68.0 °F 83% 30.19 in 7.0 mi ESE 4.6 mph - 0.00 in Rain Light Rain
1:44 PM 75.2 °F 69.8 °F 83% 30.18 in 10.0 mi East 5.8 mph - 0.00 in   Mostly Cloudy
1:53 PM 75.0 °F 70.0 °F 84% 30.16 in 7.0 mi East 4.6 mph - 0.00 in   Mostly Cloudy
2:53 PM 75.0 °F 69.1 °F 82% 30.16 in 7.0 mi East 6.9 mph - 0.00 in Rain Light Rain
3:53 PM 75.0 °F 70.0 °F 84% 30.13 in 10.0 mi NE 9.2 mph - 0.00 in   Mostly Cloudy
4:13 PM 75.2 °F 69.8 °F 83% 30.14 in 10.0 mi NNE 5.8 mph - N/A   Mostly Cloudy
4:53 PM 75.9 °F 70.0 °F 82% 30.11 in 10.0 mi NE 4.6 mph - N/A   Mostly Cloudy
5:43 PM 75.2 °F 69.8 °F 83% 30.12 in 10.0 mi NE 5.8 mph - N/A   Mostly Cloudy
5:53 PM 75.9 °F 70.0 °F 82% 30.11 in 10.0 mi NE 4.6 mph - N/A   Mostly Cloudy
6:01 PM 75.2 °F 69.8 °F 83% 30.13 in 10.0 mi NE 4.6 mph - N/A   Partly Cloudy
6:53 PM 75.0 °F 70.0 °F 84% 30.12 in 10.0 mi NE 4.6 mph - 0.00 in Rain Light Rain
7:53 PM 73.9 °F 70.0 °F 87% 30.12 in 10.0 mi NNE 4.6 mph - 0.00 in Rain Light Rain
8:53 PM 73.0 °F 70.0 °F 90% 30.12 in 10.0 mi NE 5.8 mph - 0.02 in Rain Light Rain
9:44 PM 71.6 °F 71.6 °F 100% 30.16 in 10.0 mi NE 4.6 mph - 0.00 in   Overcast
9:53 PM 72.0 °F 70.0 °F 93% 30.14 in 10.0 mi NE 4.6 mph - 0.00 in Rain Light Rain
10:53 PM 72.0 °F 70.0 °F 93% 30.13 in 10.0 mi ENE 5.8 mph - 0.00 in   Overcast
11:53 PM 73.0 °F 70.0 °F 90% 30.13 in 6.0 mi East 5.8 mph - 0.01 in Rain Light Rain